Regional Weather Roundup
Issued by NWS San Diego, CA

Home | Current Version | Previous Version | Text Only | Print | Product List | Glossary On
Versions: 1 2 3 4 5 6 7 8 9 10 11 12 13 14 15 16 17 18 19 20 21 22 23 24 25 26 27 28
000
ASUS46 KSGX 020411
RWRSGX

SAN DIEGO HOURLY WEATHER ROUNDUP
NATIONAL WEATHER SERVICE SAN DIEGO CA
900 PM PDT SUN MAY 01 2016

NOTE: "FAIR" INDICATES FEW OR NO CLOUDS BELOW 12,000 FEET WITH NO
SIGNIFICANT WEATHER AND/OR OBSTRUCTIONS TO VISIBILITY.

CAZ042-043-060-061-PZZ750-775-020500-

GREATER SAN DIEGO AREA

CITY           SKY/WX    TMP DP  RH WIND       PRES   REMARKS
LINDBERGH FLD  MOCLDY    62  51  67 W5        30.00R
POINT LOMA       N/A     58  56  94 W6          N/A
NATIONAL CITY    N/A     61  54  77 CALM      30.00R
CHULA VISTA      N/A     60  54  82 W2        29.92R
IMPERIAL BEACH PTCLDY    61  51  70 W5        30.00R
BROWN FIELD    CLEAR     57  51  80 CALM      29.99R
MIRAMAR MCAS   PTCLDY    60  49  66 W5        29.99R
MONTGOMERY FLD CLEAR     59  51  75 W6        29.99R

$$

NORTH SAN DIEGO COUNTY

CITY           SKY/WX    TMP DP  RH WIND       PRES   REMARKS
CAMP PENDLETON CLEAR     59  53  80 CALM      29.99R HAZE
OCEANSIDE AP   MOCLDY    58  50  75 W3        29.98R
OCEANSIDE HBR    N/A     60  55  82 SW3       30.01R
VISTA            N/A     59  53  80 CALM      29.97R
CARLSBAD       PTCLDY    60  52  74 SW3       29.98R
DEL MAR          N/A     59  54  83 CALM      30.02R
LA JOLLA SCRIP   N/A     59  53  80 SW3       29.99R
FALLBROOK        N/A     57  55  91 CALM      29.96R
SAN MARCOS       N/A     57  48  71 W3        29.97R
POWAY            N/A     58  51  78 CALM      30.01R

$$

EAST SAN DIEGO COUNTY

CITY           SKY/WX    TMP DP  RH WIND       PRES   REMARKS
RAMONA         PTCLDY    53  49  86 NW5       29.99R
SANTEE LAKES     N/A     59  52  78 CALM      29.99R
LA MESA          N/A     57  51  80 CALM      29.92R
JAMUL            N/A     56  51  84 CALM      30.00R
DESCANSO N       N/A     50  46  85 W5        29.88R
MT. LAGUNA OBS   N/A     47  40  75 NE2       29.64
CAMPO            N/A     54  48  80 S6        29.96R

$$

ORANGE COUNTY AND THE LOS ANGELES BASIN

CITY           SKY/WX    TMP DP  RH WIND       PRES   REMARKS
JOHN WAYNE AP  PTCLDY    59  52  77 S7        29.98R
LAKE FOREST FR   N/A     57  50  76 CALM      29.88R
HUNTINGTON BCH   N/A     60  56  88 W3        30.00R
LOS ALAMITOS   FAIR      59  53  80 S5        29.98R
FULLERTON      CLEAR     62  52  69 SW5       29.97R
LONG BEACH     CLEAR     61  53  75 NW8       29.98R
L.A. AP        PTCLDY    58  52  80 W9        29.99R
L.A. DOWNTOWN  CLEAR     59  53  80 W5        29.97R

$$

THE INLAND EMPIRE

CITY           SKY/WX    TMP DP  RH WIND       PRES   REMARKS
CORONA         CLEAR     60  52  74 W10G16    29.96R
CHINO          PTCLDY    61  52  72 W9        29.97R
ONTARIO        PTCLDY    61  50  67 W8        29.96R
SAN BERNARDINO PTCLDY    64  50  59 SW7       29.96R
RIVERSIDE AP   CLEAR     62  51  67 W3        29.96R
MORENO VALLEY    N/A     62  56  80 CALM      28.07R
MARCH ARB      CLEAR     61  51  70 NW3       29.97R
HORSETHIEF CYN   N/A     63  47  57 NW3       29.99R
PERRIS           N/A     63  53  69 CALM        N/A
HEMET EAST       N/A     62  48  60 CALM      29.87R
FRENCH VALLEY  FAIR      57  50  77 S7        29.98R
TEMECULA         N/A     59  53  80 SW3       29.94R

$$

SAN BERNARDINO AND RIVERSIDE COUNTY MOUNTAINS

CITY           SKY/WX    TMP DP  RH WIND       PRES   REMARKS
BIG BEAR AP    CLEAR     37  32  81 CALM      30.11R
PINE COVE        N/A     44  43  97 CALM      30.00R

$$

SOUTHERN DESERT INCLUDING THE COACHELLA VALLEY

CITY           SKY/WX    TMP DP  RH WIND       PRES   REMARKS
PALM SPRINGS   CLEAR     76  43  30 N3        29.90R
THOUSAND PALMS   N/A     75  44  32 S1        29.87R
PALM DESERT      N/A     77  46  32 CALM      31.59S
THERMAL        CLEAR     70  46  42 N5        29.84R
BLYTHE         CLEAR     77  40  26 CALM      29.87R
IMPERIAL AP    CLEAR     73  45  36 CALM      29.85R
EL CENTRO NAS  CLEAR    N/A N/A N/A W5        29.87R
YUMA AZ        CLEAR     77  42  28 CALM      29.87
MEXICALI       CLEAR     72  46  40 SE5       29.86R

$$

UPPER DESERT

CITY           SKY/WX    TMP DP  RH WIND       PRES   REMARKS
VICTORVILLE AP PTCLDY    64  39  39 SW5       29.97R
HESPERIA         N/A     61  42  49 W3        30.04R
PALMDALE       CLOUDY    65  40  39 S17       29.97R
LANCASTER      MOCLDY    64  45  49 S7        29.97R
EDWARDS AFB    MOCLDY    66  47  49 SW10      29.93R
DAGGETT        CLEAR     70  39  32 NE10      29.92R
29 PALMS N     PTCLDY    70  34  26 S6        30.00R
NEEDLES        CLEAR     76  43  30 SE12      29.90R

$$

REGIONAL REPORTS

CITY           SKY/WX    TMP DP  RH WIND       PRES   REMARKS
SANTA BARBARA  CLEAR     55  52  89 W5        29.96R
SANDBERG       MOCLDY    55  46  71 SW6       30.04R
LAS VEGAS NV   PTCLDY    70  41  34 SW5       29.91R
PHOENIX AZ     CLEAR     76  38  25 N5        29.91R
TIJUANA        PTCLDY    57  48  72 NW8       30.01R
ENSENADA NW      N/A     60  32  34 W3        29.96R

$$

OFFSHORE ISLANDS

CITY           SKY/WX    TMP DP  RH WIND       PRES   REMARKS
CATALINA ARPT  CLOUDY    50  49  96 SW6       30.00R FOG
SAN NICOLAS IS CLOUDY   N/A N/A N/A W7        29.98R

$$

MARINE AND OFFSHORE BUOY REPORTS

STATION/POSITION SKY/WX   TEMP    WIND        PRES    SWELL
                          AIR SEA DIR/SP/G            HT/PER/DIR
                          (F)     (DEG/KT/KT) (MB)    (FT/S/D)
TANNER BANKS               59 59  270/  6/  6 1014.8R   8/310/11
S CLEMENTE BASIN           58 62  280/  2/  6 1015.3R   5/190/16
SAN NICOLAS IS.               60                N/A     5/180/17
SO. S. ROSA ISLA           56 56  230/  4/  6 1015.0R   7/190/16
W. S. BARBARA CH           54 55  190/  6/  8 1014.0R   7/300/10
M. S. BARBARA CH           56 58  280/  6/  8 1014.5R
S. MONICA BASIN            57 60  240/  4/  8 1015.3R   3/190/16
S PEDRO CHANNEL               62                N/A     2/170/17
OCEANSIDE OFFSHR              64                N/A     3/190/17
TORREY PINES OTR              64                N/A     3/190/17
LA JOLLA 1                 60 66              1014.9R
SAN DIEGO BAY                 68              1015.2R
POINT LOMA SOUTH              64                N/A     5/180/15

$$





USA.gov is the U.S. government's official web portal to all federal, state and local government web resources and services.